Regional Weather Roundup
Issued by NWS

Home | Current Version | Previous Version | Text Only | Print | Product List | Glossary Off
Versions: 1 2 3 4 5 6 7 8 9 10 11 12 13 14 15 16 17 18 19 20 21 22 23 24 25 26 27 28 29 30 31 32 33 34 35 36 37 38 39 40 41 42 43 44 45 46 47 48 49 50

000
ASUS43 KFSD 300210
RWRSD

WEATHER ROUNDUP FOR SOUTH DAKOTA
NATIONAL WEATHER SERVICE SIOUX FALLS SD
900 PM CDT SUN MAR 29 2015

NOTE: "FAIR" INDICATES FEW OR NO CLOUDS BELOW 12,000 FEET WITH NO
SIGNIFICANT WEATHER AND/OR OBSTRUCTIONS TO VISIBILITY.


SDZ001>005-009-010-012>017-300300-
NORTHWEST AND NORTH CENTRAL SOUTH DAKOTA

CITY           SKY/WX    TMP DP  RH WIND       PRES   REMARKS
BUFFALO          N/A     51  27  39 W7        29.95F
FAITH            N/A     52  25  35 W5        30.01F
MOBRIDGE       CLEAR     44  30  57 N5        29.97S
$$

SDZ012>016-024>037-041>051-057-063-072>074-300300-
SOUTHWEST AND SOUTH CENTRAL SOUTH DAKOTA

CITY           SKY/WX    TMP DP  RH WIND       PRES   REMARKS
RAPID CTY ARPT MOCLDY    50  27  40 NE3       30.05S
PIERRE         CLEAR     53  28  38 SW3       30.02S
CUSTER         MOCLDY    45  20  36 CALM      30.10R
ELLSWORTH AFB  CLOUDY    55  27  33 SE2       30.04F
PHILIP         MOCLDY    52  24  33 W5        30.04S
PINE RIDGE     PTCLDY    47  27  45 E7        30.07F
SPEARFISH      FAIR      45  28  53 SW9       30.07S
WINNER         FAIR      56  20  24 SW5       30.07S
$$

SDZ004>011-016>023-039-040-300300-
NORTHEAST SOUTH DAKOTA

CITY           SKY/WX    TMP DP  RH WIND       PRES   REMARKS
ABERDEEN       CLEAR     42  22  44 CALM      30.00S
WATERTOWN      CLEAR     39  25  57 W7        30.01R
SISSETON         N/A     44  28  53 W10       29.96S
$$

SDZ017-020-022-023-036>040-048>070-300300-
SOUTHEAST SOUTH DAKOTA

CITY           SKY/WX    TMP DP  RH WIND       PRES   REMARKS
SIOUX FALLS    CLEAR     44  20  38 W5        30.05R
HURON          CLEAR     43  19  38 W3        30.03R
CHAMBERLAIN    CLEAR     40  23  49 SW7       30.05S
MITCHELL       CLEAR     49  21  33 SW5       30.06R
YANKTON        CLEAR     50  19  29 W9        30.08S
$$

ABBREVIATIONS USED IN REMARKS
   TC - TEMPERATURE IN CELSIUS
  WCI - WIND CHILL INDEX
   HX - HEAT INDEX
  VSB - VISIBILITY



USA.gov is the U.S. government's official web portal to all federal, state and local government web resources and services.